STARLINK-32794, 62844

Orbit data source: Space-Track

STARLINK-32794, 62844 is a payload satellite owned by SpaceX/Seattle (US) in LEO that was launched on Mon, 27 Jan 2025 UTC via an FALCON 9 launch vehicle from the Air Force Eastern Test Range (AFETR). Payload-class satellites include a variety of spacecraft equipped with specific instruments for various scientific and technological missions. These include communications satellites like Starlink; space stations such as the ISS; scientific satellites like the Hubble; Earth observation satellites from companies like Planet Labs, Umbra, and HawkEye 360; GPS; miniature CubeSats for education and research; and military/defense satellites.

Loading next visibility...
Identifier
62844, 2025-019R
Orbit
LEO
Country
Flag of USUS
Related business
Manufacturer
SpaceX/Seattle
Mission
Operational Commercial Communications
Bus & Motor
STARLINK V2M, Unknown motor
Mass
730 kg wet, ~700 kg dry
Launch date (UTC)
2025-01-27 (1 year ago)
Launch vehicle
FALCON 9
Launch site
Air Force Eastern Test Range (AFETR)
Object type
Payload
Rocket body
Debris
Shape & HBR
Box + 2 Pan, 17.7 m
Radar Cross Section
33.884 m², Large (>1 m²)

Expand to show TLE details & history
Last TLE update: 13 hours ago

TLE from 13 hours ago
0 STARLINK-32794
1 62844U 25019R   26036.68870034  .00038364  00000-0  13954-2 0  9992
2 62844  42.9993 269.9751 0001262 256.9540 103.1171 15.27603854 57358
Epoch: 2026-02-05T16:31Z
TLE epoch observation values (Epoch: 2026-02-05T16:31:43.709Z)
Latitude
-0°
Longitude
-113.79435°
Altitude
482.95 km
Speed
7.626 km/s
True Right ascension
17h 59m 54s
True Declination
0° 00' 00"
Sunlit
Object was in daylight at epoch
Visualization orbit readout
Latitude
Unknown
Longitude
Unknown
Altitude
Unknown
Speed
Unknown
Apparent Right ascension
Unknown
Apparent Declination
Unknown
Sunlit
N/A
Visualization observer readout
Local Sidereal Time
07:25:42
Azimuth
Unknown
Elevation
Unknown
Doppler factor
Unknown
Orbital elements
Apogee altitude
485.789 km
Perigee altitude
484.057 km
Semi-major axis
6,863.06 km
Eccentricity
0.00013
Inclination
42.9993°
RAAN
269.9751°
Arg. of periapsis
256.954°
True anomaly
103.13118°
Mean anomaly
103.1171°
Eccentric anomaly
103.12414°
Mean motion
3.81739 °/min
Orbital period
94.31 mins
BSTAR
0.0013954
Loading maneuver chart data...
Computing Atmospheric mass density...
Loading historical data...
Loading historical data...
Loading historical data...
Loading historical data...
Loading historical data...
Loading historical data...
Loading historical data...

Documentation

Showing up to 5 results
|